RADUGA-1 7 [-]

Last updated on Nov. 12, 2019, 4:19 a.m. UTC

1 28194U 04010A   19315.72652365 -.00000358  00000-0  00000+0 0  9990
2 28194  10.8541  38.6734 0003152 256.1824 140.0078  1.00227475 57241
UTC
Height (km)
Latitude
Longitude
Inclination
Orbital Period
UTC large
Height (km)
Speed (km/s)
/
Latitude / Longitude
Inclination (degrees)
Orbital Period (minutes)
Azimuth
Elevation
Range (km)
Doppler Factor
iOS Compass Heading
iOS Angle

Next 30 passes for location: Hong Kong

Rise time Rise Azimuth (degrees) Set time Set Azimuth (degrees) Duration Max altitude (degrees)

No matching passes for this satellites